Manitowish Waters, Manitowish, WI

1:00 AM CDT on August 21, 2017 (GMT -0500)
Manitowish Waters, Manitowish

Weather History for KD25 - May, 2014

Change the Weather History Date:

Monday, May 5, 2014

  Actual Average (KARV) Record (KARV)
Temperature  
Mean Temperature 42 °F -  
Max Temperature 50 °F 63 °F 87 °F (1918)
Min Temperature 35 °F 36 °F 18 °F (1968)
Degree Days  
Heating Degree Days 22    
Moisture  
Dew Point 35 °F    
Average Humidity 77    
Maximum Humidity 99    
Minimum Humidity 56    
Precipitation  
Precipitation 0.09 in - - ()
Sea Level Pressure  
Sea Level Pressure 30.04 in    
Wind  
Wind Speed 3 mph (ESE)    
Max Wind Speed 8 mph    
Max Gust Speed -    
Visibility 10 miles    
Events Rain    
Averages and records for this station are not official NWS values.
T = Trace of Precipitation, MM = Missing Value Source: NWS Daily Summary

Daily Weather History Graph

Daily Weather History Graph

Search for Another Location

Airport or City:

Trip Planner

Search our weather history database for the weather conditions in past years. The results will help you decide how hot, cold, wet, or windy it might be!

Date:

Astronomy

May. 05, 2014 Rise Set
Actual Time 5:40 AM CDT 8:13 PM CDT
Civil Twilight 5:06 AM CDT 8:46 PM CDT
Nautical Twilight 4:24 AM CDT 9:29 PM CDT
Astronomical Twilight 3:35 AM CDT 10:18 PM CDT
Moon 11:01 AM CDT (5/5) 12:56 AM CDT (5/5)
Length of Visible Light 15h 40m
Length of Day
14h 32m
Waxing Crescent, 37% of the Moon is Illuminated
May 5
Waxing Crescent
May 6
First Quarter
May 14
Full
May 21
Last Quarter
May 28
New

Hourly Weather History & Observations

Time (CDT) Temp. Windchill Dew Point Humidity Pressure Visibility Wind Dir Wind Speed Gust Speed Precip Events Conditions
12:15 AM 38.3 °F 34.8 °F 27.1 °F 64% 30.05 in 10.0 mi ENE 4.6 mph - N/A   Scattered Clouds
12:35 AM 37.9 °F - 27.1 °F 65% 30.06 in 10.0 mi Calm Calm - N/A   Clear
12:55 AM 37.6 °F 35.1 °F 27.7 °F 67% 30.05 in 10.0 mi East 3.5 mph - N/A   Clear
1:15 AM 37.8 °F 35.3 °F 27.5 °F 67% 30.05 in 10.0 mi ENE 3.5 mph - N/A   Scattered Clouds
1:35 AM 37.8 °F 35.3 °F 28.0 °F 68% 30.05 in 10.0 mi East 3.5 mph - N/A   Mostly Cloudy
1:55 AM 38.3 °F 35.9 °F 28.2 °F 67% 30.04 in 10.0 mi East 3.5 mph - N/A   Mostly Cloudy
2:15 AM 38.5 °F 36.1 °F 28.4 °F 67% 30.04 in 10.0 mi East 3.5 mph - N/A   Overcast
2:35 AM 38.7 °F - 28.2 °F 66% 30.05 in 10.0 mi Calm Calm - N/A   Overcast
2:55 AM 38.7 °F - 28.4 °F 67% 30.06 in 10.0 mi Calm Calm - N/A   Overcast
3:15 AM 38.5 °F - 30.4 °F 73% 30.06 in 10.0 mi Calm Calm - N/A   Drizzle
3:35 AM 37.9 °F - 32.5 °F 81% 30.08 in 10.0 mi Calm Calm - N/A   Drizzle
3:55 AM 36.9 °F - 34.5 °F 91% 30.08 in 10.0 mi Calm Calm - 0.01 in Rain Light Rain
4:15 AM 36.9 °F - 34.7 °F 92% 30.09 in 10.0 mi Calm Calm - N/A   Drizzle
4:35 AM 36.3 °F - 35.4 °F 97% 30.08 in 3.0 mi Calm Calm - 0.03 in Rain Rain
5:15 AM 36.0 °F 33.3 °F 35.6 °F 99% 30.08 in 7.0 mi ESE 3.5 mph - 0.03 in Rain Light Rain
5:35 AM 35.8 °F - 35.6 °F 99% 30.08 in 10.0 mi Calm Calm - 0.04 in Rain Light Rain
5:55 AM 35.8 °F - 35.6 °F 99% 30.09 in 10.0 mi Calm Calm - 0.05 in Rain Light Rain
6:15 AM 36.0 °F 33.3 °F 35.6 °F 99% 30.09 in 10.0 mi SSE 3.5 mph - N/A   Drizzle
6:35 AM 35.8 °F 31.9 °F 35.2 °F 98% 30.09 in 10.0 mi SSE 4.6 mph - N/A Rain Light Rain
6:55 AM 35.8 °F 31.9 °F 35.2 °F 98% 30.10 in 10.0 mi SSE 4.6 mph - N/A   Drizzle
7:15 AM 35.8 °F 31.9 °F 35.2 °F 98% 30.09 in 10.0 mi SE 4.6 mph - N/A   Overcast
7:35 AM 35.6 °F 29.2 °F 35.1 °F 98% 30.08 in 10.0 mi SSE 8.1 mph - N/A   Overcast
7:55 AM 35.6 °F 30.7 °F 35.1 °F 98% 30.09 in 10.0 mi ESE 5.8 mph - N/A   Overcast
8:15 AM 36.0 °F 32.1 °F 35.4 °F 98% 30.08 in 10.0 mi SE 4.6 mph - N/A   Overcast
8:35 AM 36.3 °F 31.6 °F 35.6 °F 97% 30.08 in 10.0 mi ESE 5.8 mph - N/A   Overcast
8:55 AM 36.9 °F 32.2 °F 35.8 °F 96% 30.08 in 10.0 mi ESE 5.8 mph - N/A   Overcast
9:15 AM 37.0 °F 32.4 °F 35.6 °F 95% 30.07 in 10.0 mi ESE 5.8 mph - N/A   Overcast
9:35 AM 37.4 °F 32.8 °F 36.0 °F 95% 30.06 in 10.0 mi SE 5.8 mph - N/A   Overcast
9:55 AM 37.9 °F 34.4 °F 36.3 °F 94% 30.06 in 10.0 mi SE 4.6 mph - N/A   Overcast
10:15 AM 38.3 °F - 36.7 °F 94% 30.06 in 10.0 mi Calm Calm - N/A   Light Drizzle
10:35 AM 39.6 °F 36.3 °F 37.2 °F 91% 30.06 in 10.0 mi ESE 4.6 mph - N/A   Overcast
10:55 AM 40.1 °F 36.9 °F 37.0 °F 89% 30.06 in 10.0 mi East 4.6 mph - N/A   Overcast
11:15 AM 40.5 °F 37.3 °F 37.4 °F 89% 30.06 in 10.0 mi East 4.6 mph - N/A   Overcast
11:35 AM 41.7 °F 39.8 °F 37.4 °F 85% 30.06 in 10.0 mi SE 3.5 mph - N/A   Overcast
11:55 AM 42.8 °F 40.1 °F 37.8 °F 82% 30.06 in 10.0 mi ESE 4.6 mph - N/A   Overcast
12:15 PM 43.5 °F 40.9 °F 37.4 °F 79% 30.06 in 10.0 mi ESE 4.6 mph - N/A   Overcast
12:35 PM 44.4 °F 41.2 °F 37.6 °F 77% 30.06 in 10.0 mi SSE 5.8 mph - N/A   Overcast
12:55 PM 45.7 °F 43.4 °F 37.8 °F 74% 30.05 in 10.0 mi South 4.6 mph - N/A   Overcast
1:15 PM 45.5 °F 44.2 °F 37.8 °F 74% 30.05 in 10.0 mi SSE 3.5 mph - N/A   Overcast
1:35 PM 46.9 °F - 37.6 °F 70% 30.05 in 10.0 mi Calm Calm - N/A   Overcast
1:55 PM 47.5 °F - 36.9 °F 67% 30.05 in 10.0 mi SW 3.5 mph - N/A   Overcast
2:15 PM 47.5 °F - 36.7 °F 66% 30.04 in 10.0 mi Calm Calm - N/A   Overcast
2:35 PM 48.0 °F - 36.9 °F 65% 30.04 in 10.0 mi Calm Calm - N/A   Overcast
2:55 PM 49.1 °F - 36.7 °F 62% 30.03 in 10.0 mi South 3.5 mph - N/A   Overcast
3:15 PM 48.4 °F - 36.9 °F 64% 30.02 in 10.0 mi Calm Calm - N/A   Overcast
3:35 PM 49.5 °F - 37.6 °F 64% 30.01 in 10.0 mi ESE 3.5 mph - N/A   Overcast
3:55 PM 49.1 °F - 36.7 °F 62% 30.01 in 10.0 mi SE 3.5 mph - N/A   Overcast
4:15 PM 50.0 °F - 36.9 °F 61% 30.00 in 10.0 mi NNE 4.6 mph - N/A   Overcast
4:35 PM 49.6 °F - 36.0 °F 59% 30.00 in 10.0 mi NNE 4.6 mph - N/A   Mostly Cloudy
4:55 PM 50.2 °F - 34.9 °F 56% 29.99 in 10.0 mi NE 4.6 mph - N/A   Overcast
5:15 PM 50.0 °F - 35.1 °F 57% 29.99 in 10.0 mi Calm Calm - N/A   Overcast
5:35 PM 50.2 °F - 35.6 °F 57% 29.99 in 10.0 mi Calm Calm - N/A   Overcast
5:55 PM 50.4 °F - 35.8 °F 57% 29.99 in 10.0 mi East 3.5 mph - N/A   Overcast
6:15 PM 50.0 °F - 35.8 °F 58% 29.99 in 10.0 mi East 3.5 mph - N/A   Overcast
6:35 PM 49.6 °F - 36.3 °F 60% 29.99 in 10.0 mi ENE 3.5 mph - N/A   Overcast
6:55 PM 49.1 °F - 36.1 °F 61% 30.00 in 10.0 mi NE 3.5 mph - N/A   Overcast
7:15 PM 48.6 °F - 36.5 °F 63% 30.00 in 10.0 mi ENE 3.5 mph - N/A   Overcast
7:35 PM 48.2 °F - 36.7 °F 64% 30.00 in 10.0 mi Calm Calm - N/A   Overcast
7:55 PM 47.3 °F - 36.3 °F 66% 30.00 in 10.0 mi Calm Calm - N/A   Overcast
8:15 PM 46.0 °F 44.8 °F 36.9 °F 70% 30.01 in 10.0 mi NE 3.5 mph - N/A   Overcast
8:35 PM 46.0 °F 44.8 °F 36.7 °F 70% 30.01 in 10.0 mi ENE 3.5 mph - N/A   Overcast
8:55 PM 45.5 °F 44.2 °F 36.9 °F 72% 30.01 in 10.0 mi East 3.5 mph - N/A   Overcast
9:15 PM 45.5 °F 44.2 °F 37.0 °F 72% 30.01 in 10.0 mi ENE 3.5 mph - N/A   Overcast
9:35 PM 45.3 °F - 37.0 °F 73% 30.02 in 10.0 mi Calm Calm - N/A   Overcast
9:55 PM 45.0 °F - 36.9 °F 73% 30.02 in 10.0 mi Calm Calm - N/A   Overcast
10:15 PM 44.6 °F 43.1 °F 37.0 °F 75% 30.02 in 10.0 mi ENE 3.5 mph - N/A   Overcast
10:35 PM 44.6 °F 43.1 °F 37.0 °F 75% 30.03 in 10.0 mi ENE 3.5 mph - N/A   Overcast
10:55 PM 44.2 °F 42.7 °F 37.0 °F 76% 30.03 in 10.0 mi ENE 3.5 mph - N/A   Overcast
11:35 PM 43.7 °F - 37.2 °F 78% 30.04 in 10.0 mi Calm Calm - N/A   Overcast
11:55 PM 43.3 °F 41.7 °F 37.0 °F 78% 30.04 in 10.0 mi ENE 3.5 mph - N/A   Overcast